Weather History for Fort Polk, LA

Change the Weather History Date:

Saturday, April 27, 2013

  Actual Average (KPOE) Record (KPOE)
Temperature  
Mean Temperature 74 °F -  
Max Temperature 82 °F 78 °F 89 °F (2011)
Min Temperature 66 °F 58 °F 48 °F (2005)
Cooling Degree Days 9    
Growing Degree Days 24 (Base 50)    
Moisture  
Dew Point 65 °F    
Average Humidity 81    
Maximum Humidity 97    
Minimum Humidity 56    
Precipitation  
Precipitation 0.00 in - - ()
Sea Level Pressure  
Sea Level Pressure 30.05 in    
Wind  
Wind Speed 3 mph (South)    
Max Wind Speed 9 mph    
Max Gust Speed -    
Visibility 9 miles    
Events      
Averages and records for this station are not official NWS values.
T = Trace of Precipitation, MM = Missing Value Source: NWS Daily Summary

Daily Weather History Graph

Daily Weather History Graph

Search for Another Location

Airport:

Trip Planner

Search our weather history database for the weather conditions in past years. The results will help you decide how hot, cold, wet, or windy it might be!

Date:

Astronomy

Apr. 27, 2013 Rise Set
Actual Time 6:31 AM CDT 7:50 PM CDT
Civil Twilight 6:06 AM CDT 8:15 PM CDT
Nautical Twilight 5:35 AM CDT 8:46 PM CDT
Astronomical Twilight 5:04 AM CDT 9:17 PM CDT
Moon 10:13 PM CDT (4/27) 7:56 AM CDT (4/27)
Length of Visible Light 14h 09m
Length of Day
13h 18m
Waning Gibbous, 95% of the Moon is Illuminated
Apr 27
Waning Gibbous
May 2
Last Quarter
May 9
New
May 17
First Quarter
May 24
Full

Hourly Weather History & Observations

Time (CDT) Temp. Heat Index Dew Point Humidity Pressure Visibility Wind Dir Wind Speed Gust Speed Precip Events Conditions
12:56 AM 69.1 °F - 66.0 °F 90% 30.14 in 10.0 mi Calm Calm - N/A   Overcast
1:56 AM 68.0 °F - 64.9 °F 90% 30.12 in 9.0 mi South 3.5 mph - N/A   Scattered Clouds
2:42 AM 66.2 °F - 64.4 °F 94% 30.10 in 8.0 mi South 4.6 mph - N/A   Partly Cloudy
2:56 AM 66.9 °F - 64.9 °F 93% 30.08 in 7.0 mi Calm Calm - N/A   Scattered Clouds
3:07 AM 66.2 °F - 64.4 °F 94% 30.09 in 7.0 mi Calm Calm - N/A   Mostly Cloudy
3:56 AM 66.9 °F - 64.9 °F 93% 30.06 in 6.0 mi SSE 4.6 mph - N/A   Overcast
4:56 AM 66.9 °F - 66.0 °F 97% 30.06 in 7.0 mi South 4.6 mph - N/A   Overcast
5:56 AM 68.0 °F - 66.0 °F 93% 30.06 in 7.0 mi Variable 5.8 mph - N/A   Overcast
6:56 AM 68.0 °F - 66.0 °F 93% 30.09 in 8.0 mi South 4.6 mph - N/A   Overcast
7:56 AM 69.1 °F - 66.0 °F 90% 30.10 in 10.0 mi Variable 4.6 mph - N/A   Overcast
8:56 AM 71.1 °F - 66.0 °F 84% 30.11 in 10.0 mi South 8.1 mph - N/A   Mostly Cloudy
9:56 AM 73.0 °F - 66.0 °F 79% 30.11 in 10.0 mi Variable 4.6 mph - N/A   Overcast
10:40 AM 75.2 °F - 66.2 °F 73% 30.11 in 10.0 mi Variable 4.6 mph - N/A   Mostly Cloudy
10:56 AM 75.0 °F - 64.9 °F 71% 30.10 in 10.0 mi South 6.9 mph - N/A   Mostly Cloudy
11:56 AM 77.0 °F - 64.0 °F 64% 30.09 in 10.0 mi South 9.2 mph - N/A   Mostly Cloudy
12:56 PM 77.0 °F - 64.9 °F 66% 30.09 in 10.0 mi Variable 5.8 mph - N/A   Overcast
1:56 PM 75.9 °F - 66.0 °F 71% 30.07 in 10.0 mi SW 3.5 mph - N/A   Overcast
2:56 PM 80.1 °F 81.9 °F 64.9 °F 60% 30.03 in 10.0 mi Variable 4.6 mph - N/A   Mostly Cloudy
3:56 PM 82.0 °F 83.8 °F 64.9 °F 56% 30.00 in 10.0 mi Variable 3.5 mph - N/A   Mostly Cloudy
4:56 PM 80.1 °F 82.3 °F 66.9 °F 64% 29.99 in 10.0 mi South 8.1 mph - N/A   Mostly Cloudy
5:40 PM 77.0 °F - 66.2 °F 69% 29.99 in 10.0 mi SE 3.5 mph - N/A   Mostly Cloudy
5:56 PM 78.1 °F - 66.9 °F 68% 29.99 in 10.0 mi Variable 5.8 mph - N/A   Mostly Cloudy
6:56 PM 75.0 °F - 66.0 °F 73% 29.99 in 10.0 mi Variable 3.5 mph - N/A   Mostly Cloudy
7:56 PM 72.0 °F - 64.9 °F 78% 29.98 in 10.0 mi Calm Calm - N/A   Clear
8:56 PM 70.0 °F - 66.0 °F 87% 29.99 in 10.0 mi South 5.8 mph - N/A   Clear
9:56 PM 70.0 °F - 66.0 °F 87% 29.96 in 10.0 mi Variable 4.6 mph - N/A   Clear
10:56 PM 70.0 °F - 64.9 °F 84% 30.02 in 10.0 mi Calm Calm - N/A   Scattered Clouds
11:09 PM 69.8 °F - 66.2 °F 88% 30.03 in 10.0 mi Calm Calm - N/A   Mostly Cloudy
11:32 PM 69.8 °F - 64.4 °F 83% 30.01 in 10.0 mi Calm Calm - N/A   Scattered Clouds
11:56 PM 69.1 °F - 64.9 °F 87% 30.00 in 10.0 mi Calm Calm - N/A   Partly Cloudy